Regional Weather Roundup
Issued by NWS Charleston, SC

Current Version | Previous Version | Graphics & Text | Print | Product List | Glossary On
Versions: 1 2 3 4 5 6 7 8 9 10 11 12 13 14 15 16 17 18 19 20 21 22 23 24 25 26 27 28 29 30 31 32 33 34 35 36 37 38 39 40 41 42 43 44 45 46 47 48 49 50
358 ASUS42 KCHS 141228 RWRCHS REGIONAL WEATHER ROUNDUP NATIONAL WEATHER SERVICE CHARLESTON SC 700 AM EST SUN FEB 14 2016 NOTE: "FAIR" INDICATES FEW OR NO CLOUDS BELOW 12,000 FEET WITH NO SIGNIFICANT WEATHER AND/OR OBSTRUCTIONS TO VISIBILITY. NOT ALL STATIONS ARE QUALITY CONTROLLED BY THE NATIONAL WEATHER SERVICE. USE DATA WITH CAUTION...ESPECIALLY DEWPOINT OBSERVATIONS. SCZ027-030-031-034>040-042>050-141300- ...SOUTHEAST SOUTH CAROLINA... CITY SKY/WX TMP DP RH WIND PRES REMARKS N CHARLESTON PTCLDY 28 6 39 NE13 30.47R WCI 17 6HR MIN TEMP: 28; 6HR MAX TEMP: 34; WATERFRONT PRK N/A 31 18 58 NE16 30.28R WCI 20 MOUNT PLEASANT FAIR 30 12 47 N6 30.48R WCI 24 JOHNS ISLAND FAIR 28 10 47 N12 30.46R WCI 18 PINOPOLIS N/A 28 12 50 NE12 30.39R WCI 18 MONCKS CORNER FAIR 25 5 42 NE8 30.49R WCI 16 SUMMERVILLE FAIR 28 12 50 NE6 30.48R WCI 22 BEAUFORT MCAS CLEAR 30 10 43 NE13 30.45R WCI 20 6HR MIN TEMP: 30; 6HR MAX TEMP: 38; BEAUFORT ARPT FAIR 32 14 47 NE16G22 30.44R WCI 21 HILTON HEAD IS CLEAR 32 16 51 N14G23 30.44R WCI 22 WALTERBORO SUNNY 30 12 47 NE7 30.46S WCI 23 ALLENDALE FAIR 28 9 43 CALM 30.44R ...SOUTHERN MIDLANDS AND PEE DEE... CITY SKY/WX TMP DP RH WIND PRES REMARKS GEORGETOWN FAIR 27 5 39 NE13G18 30.50S WCI 16 KINGSTREE FAIR 25 3 39 NE3 30.49S ORANGEBURG PTCLDY 27 5 39 NE8 30.46S WCI 19 6HR MIN TEMP: 27; 6HR MAX TEMP: 32; BARNWELL FAIR 30 10 43 E8 30.45R WCI 23 AIKEN FAIR 25 5 42 NE6 30.46R WCI 18 MANNING FAIR 27 5 39 NE5 30.49R WCI 21 COLUMBIA PTCLDY 27 2 34 E7 30.49R WCI 19 6HR MIN TEMP: 27; 6HR MAX TEMP: 31; SUMTER CLOUDY 23 4 43 NE10 30.46S WCI 13 6HR MIN TEMP: 21; 6HR MAX TEMP: 27; FLORENCE CLOUDY 22 3 44 NE10 30.51R WCI 11 6HR MIN TEMP: 21; 6HR MAX TEMP: 27; MYRTLE BEACH CLEAR 25 1 36 NE14 30.52R WCI 13 N MYRTLE BEACH PTCLDY 23 4 44 NE13 30.50R WCI 11 6HR MIN TEMP: 23; 6HR MAX TEMP: 28; $$ GAZ063-065-086>088-099>101-113>116-118-119-134>141-150-141300- ...SOUTHEAST GEORGIA... CITY SKY/WX TMP DP RH WIND PRES REMARKS SAVANNAH ARPT CLEAR 31 14 49 NE9 30.43R WCI 23 6HR MIN TEMP: 31; 6HR MAX TEMP: 36; HUNTER AAF CLEAR 33 19 57 NE10 30.39R WCI 25 6HR MIN TEMP: 33; 6HR MAX TEMP: 39; FORT STEWART CLEAR 32 21 64 NE3 30.38R 6HR MIN TEMP: 32; 6HR MAX TEMP: 36; STATESBORO CLEAR 34 7 33 E7 30.41S WCI 28 SYLVANIA MOSUNNY 31 16 53 E9 30.43S WCI 23 CLAXTON FAIR 32 20 62 NE9 30.41S WCI 24 ...CSRA...CENTRAL AND FAR SOUTHEAST GEORGIA... CITY SKY/WX TMP DP RH WIND PRES REMARKS THOMSON CLEAR 29 11 47 E9 30.46R WCI 21 AUGUSTA-BUSH CLOUDY 27 9 46 E7 30.45R WCI 19 6HR MIN TEMP: 27; 6HR MAX TEMP: 32; AUGUSTA-DANIEL CLOUDY 28 4 35 E9 30.43R WCI 19 SWAINSBORO FAIR 30 18 59 E6 30.40R WCI 24 VIDALIA CLEAR 32 19 59 E8 30.39R WCI 25 EASTMAN FAIR 31 19 61 E5 30.40R WCI 27 HAZLEHURST FAIR 33 22 63 E9 30.35S WCI 25 ALMA CLEAR 32 22 66 VRB3 30.36R 6HR MIN TEMP: 32; 6HR MAX TEMP: 36; WAYCROSS CLEAR 35 28 75 E7 30.36R WCI 29 JESUP FAIR 36 30 80 NE7 30.39R WCI 30 BAXLEY FAIR 34 23 64 E9 30.35F WCI 26 BRUNSWICK CLEAR 39 36 87 N8 30.38R WCI 34 SAINT SIMONS CLEAR 37 36 96 N7 30.36R WCI 32 6HR MIN TEMP: 36; 6HR MAX TEMP: 39; $$ SCZ027-028-034-036>038-045-046-048>050-GAZ119-141-141300- ...LAKE AND SUPPLEMENTAL COASTAL OBSERVATIONS... STATION/POSITION TIME TEMP WIND PRES WAVE SWELL AIR SEA DIR/SP/G HT/PER HT/PER/DIR (UTC) (F) (DEG/KT/KT) (MB) (FT/S) (FT/S/D) WINYAH BAY 1100 27 20/ 9 1030.0S LAKE MURRAY 1100 26 50/ 3/ 10 1030.5R ACE BASIN NERRS 1100 29 30/ 5 1030.0 FORT PULASKI 1200 35 49 30/ 15/ 22 1030.4R SAPELO ISLAND 1200 41 30/ 11 1028.0R $$ ANZ835-935-AMZ111-154-330-350-352-354-370-450-454-472-141300- ...C-MAN AND BUOY OBSERVATIONS... STATION/POSITION TIME TEMP WIND PRES WAVE SWELL AIR SEA DIR/SP/G HT/PER HT/PER/DIR (UTC) (F) (DEG/KT/KT) (MB) (FT/S) (FT/S/D) BUOY 41004 1150 41 65 40/ 21/ 27 1029.7R 5/ 6 2/ 9 BUOY 41008 1150 49 53 50/ 16/ 19 1027.8R 2/ 6 2/ 80/ 7 FOLLY BEACH CMAN 1200 31 20/ 16/ 19 1031.4R CAPERS NEARSHORE 1108 34 30/ 21/ 29 1030.5R FRIPP NEARSHORE 1100 38 40/ 23/ 27 1028.2R STATION/POSITION TIME TEMP WIND PRES WAVE SWELL AIR SEA DIR/SP/G HT/PER HT/PER/DIR (UTC) (F) (DEG/KT/KT) (MB) (FT/S) (FT/S/D) 5E ST. MARYS GA 1121 55 N/A 2/ 6 FRYING PAN BUOY 1200 35 59 10/ 19/ 27 1031.7R BUOY 41025 1150 28 72 360/ 23/ 31 1031.8R 7/ 8 CAPE LOOKOUT NC 1200 22 360/ 19/ 25 1032.2R BUOY 41002 1150 48 67 350/ 17/ 21 N/A 9/10 7/ 10/10 BUOY 41010 1120 61 72 1024.4R ST AUGUSTINE FL 1200 54 56 30/ 12/ 13 1026.5R $$

USA.gov is the U.S. government's official web portal to all federal, state and local government web resources and services.